HK4RAU-61 Weather Reports


time (UTC)temp
C
wind
direction
speed
KPH
gust
KPH
rain 1hr
cm
rain 24hr
cm
rain mn
cm
humidity
%
barometer
mb
20260504130522 27 70 12.9 0.0 0.00 0.00 0.00 83 1011.0
20260504130215 27 70 12.9 0.0 0.00 0.00 0.00 83 1011.0
20260504110420 24 70 16.1 0.0 0.00 0.00 0.00 83 1011.0
20260504100447 24 70 16.1 0.0 0.00 0.00 0.00 83 1010.0
20260504100139 25 70 16.1 0.0 0.00 0.00 0.00 83 1010.0
20260504081830 24 70 14.5 0.0 0.00 0.00 0.00 83 1011.0
20260504081524 25 70 14.5 0.0 0.00 0.00 0.00 83 1011.0
20260504081220 27 70 14.5 0.0 0.00 0.00 0.00 83 1011.0
20260504080918 24 70 14.5 0.0 0.00 0.00 0.00 83 1011.0
20260504080612 25 70 14.5 0.0 0.00 0.00 0.00 83 1011.0
20260504080305 25 60 12.9 0.0 0.00 0.00 0.00 83 1011.0
20260504070403 28 80 9.7 0.0 0.00 0.00 0.00 84 1012.0
20260504060140 27 70 9.7 0.0 0.00 0.00 0.00 84 1012.0
20260504050536 27 70 12.9 0.0 0.00 0.00 0.00 84 1013.0
20260504050232 26 70 12.9 0.0 0.00 0.00 0.00 84 1013.0
20260504045926 27 70 12.9 0.0 0.00 0.00 0.00 84 1013.0
20260504045625 27 70 12.9 0.0 0.00 0.00 0.00 84 1013.0
20260504045316 28 70 12.9 0.0 0.00 0.00 0.00 84 1013.0
20260504045010 28 70 12.9 0.0 0.00 0.00 0.00 84 1013.0
20260504044707 28 70 12.9 0.0 0.00 0.00 0.00 84 1013.0
20260504044405 28 70 12.9 0.0 0.00 0.00 0.00 84 1013.0
20260504043744 28 70 12.9 0.0 0.00 0.00 0.00 84 1013.0
20260504043437 24 70 12.9 0.0 0.00 0.00 0.00 79 1013.0
20260504043135 25 70 12.9 0.0 0.00 0.00 0.00 79 1013.0
20260504042830 25 70 12.9 0.0 0.00 0.00 0.00 79 1013.0
20260504042529 25 70 12.9 0.0 0.00 0.00 0.00 79 1013.0
20260504042224 25 70 12.9 0.0 0.00 0.00 0.00 79 1013.0
20260504041922 26 70 12.9 0.0 0.00 0.00 0.00 79 1012.0
20260504041619 26 70 12.9 0.0 0.00 0.00 0.00 79 1012.0
20260504041318 26 70 12.9 0.0 0.00 0.00 0.00 79 1012.0
20260504041011 26 70 12.9 0.0 0.00 0.00 0.00 79 1012.0
20260504040709 26 70 12.9 0.0 0.00 0.00 0.00 79 1012.0
20260504040400 26 70 12.9 0.0 0.00 0.00 0.00 79 1012.0
20260504040053 27 70 12.9 0.0 0.00 0.00 0.00 79 1012.0
20260504035751 27 70 12.9 0.0 0.00 0.00 0.00 79 1012.0
20260504035444 27 70 12.9 0.0 0.00 0.00 0.00 79 1012.0
20260504035136 28 70 12.9 0.0 0.00 0.00 0.00 79 1012.0
20260504034822 28 70 12.9 0.0 0.00 0.00 0.00 79 1012.0
20260504034516 28 70 12.9 0.0 0.00 0.00 0.00 79 1012.0
20260504034213 28 70 12.9 0.0 0.00 0.00 0.00 79 1012.0
20260504033849 28 70 12.9 0.0 0.00 0.00 0.00 79 1012.0
20260504033537 28 70 12.9 0.0 0.00 0.00 0.00 79 1012.0
20260504033234 28 70 12.9 0.0 0.00 0.00 0.00 79 1012.0
20260504032926 28 70 12.9 0.0 0.00 0.00 0.00 79 1012.0
20260504032619 24 70 12.9 0.0 0.00 0.00 0.00 84 1012.0
20260504032312 28 70 12.9 0.0 0.00 0.00 0.00 79 1012.0
20260504032006 24 70 12.9 0.0 0.00 0.00 0.00 84 1012.0
20260504031657 25 60 12.9 0.0 0.00 0.00 0.00 84 1012.0
20260504031351 25 60 12.9 0.0 0.00 0.00 0.00 84 1012.0
20260504031047 25 60 12.9 0.0 0.00 0.00 0.00 84 1012.0
20260504030739 25 60 12.9 0.0 0.00 0.00 0.00 84 1012.0
20260504030435 25 60 14.5 0.0 0.00 0.00 0.00 84 1012.0
20260504030117 26 60 14.5 0.0 0.00 0.00 0.00 84 1012.0
20260504025809 25 60 14.5 0.0 0.00 0.00 0.00 84 1012.0
20260504025502 26 60 14.5 0.0 0.00 0.00 0.00 84 1012.0
20260504025145 26 60 14.5 0.0 0.00 0.00 0.00 84 1012.0
20260504024844 27 60 14.5 0.0 0.00 0.00 0.00 84 1012.0
20260504024535 26 60 14.5 0.0 0.00 0.00 0.00 84 1012.0
20260504024227 26 60 14.5 0.0 0.00 0.00 0.00 84 1012.0
20260504023920 27 60 14.5 0.0 0.00 0.00 0.00 84 1012.0
20260504023613 27 60 14.5 0.0 0.00 0.00 0.00 84 1012.0
20260504023310 27 60 14.5 0.0 0.00 0.00 0.00 84 1012.0
20260504023002 27 60 14.5 0.0 0.00 0.00 0.00 84 1012.0
20260504022659 28 60 14.5 0.0 0.00 0.00 0.00 84 1012.0
20260504022357 28 60 14.5 0.0 0.00 0.00 0.00 84 1012.0
20260504022051 28 60 14.5 0.0 0.00 0.00 0.00 84 1012.0
20260504021744 28 60 14.5 0.0 0.00 0.00 0.00 84 1012.0
20260504021437 28 60 14.5 0.0 0.00 0.00 0.00 84 1012.0
20260504021129 28 60 14.5 0.0 0.00 0.00 0.00 84 1012.0
20260504020821 28 60 14.5 0.0 0.00 0.00 0.00 84 1012.0
20260504020515 24 60 14.5 0.0 0.00 0.00 0.00 83 1012.0
20260504020207 25 70 12.9 0.0 0.00 0.00 0.00 83 1012.0
20260504015900 25 70 12.9 0.0 0.00 0.00 0.00 83 1012.0
20260504015557 25 70 12.9 0.0 0.00 0.00 0.00 83 1012.0
20260504015251 25 70 12.9 0.0 0.00 0.00 0.00 83 1012.0
20260504014945 25 70 12.9 0.0 0.00 0.00 0.00 83 1012.0
20260504014632 26 70 12.9 0.0 0.00 0.00 0.00 83 1012.0
20260504014325 25 70 12.9 0.0 0.00 0.00 0.00 83 1012.0
20260504014024 26 70 12.9 0.0 0.00 0.00 0.00 83 1012.0
20260504013355 26 70 12.9 0.0 0.00 0.00 0.00 83 1011.0
20260504012733 26 70 12.9 0.0 0.00 0.00 0.00 83 1011.0
20260504012107 27 70 12.9 0.0 0.00 0.00 0.00 83 1011.0
20260504011759 27 70 12.9 0.0 0.00 0.00 0.00 83 1011.0
20260504011450 24 60 17.7 0.0 0.00 0.00 0.00 79 1011.0
20260504010827 25 60 17.7 0.0 0.00 0.00 0.00 79 1011.0
20260504005844 25 60 17.7 0.0 0.00 0.00 0.00 79 1011.0
20260504005541 25 60 17.7 0.0 0.00 0.00 0.00 79 1011.0
20260504005235 25 60 17.7 0.0 0.00 0.00 0.00 79 1011.0
20260504004933 26 60 17.7 0.0 0.00 0.00 0.00 79 1011.0
20260504004617 26 60 17.7 0.0 0.00 0.00 0.00 79 1011.0
20260504004309 26 60 17.7 0.0 0.00 0.00 0.00 79 1011.0
20260504004002 26 60 17.7 0.0 0.00 0.00 0.00 79 1011.0
20260504003700 27 60 17.7 0.0 0.00 0.00 0.00 79 1011.0
20260504003338 27 60 17.7 0.0 0.00 0.00 0.00 79 1011.0
20260504003026 27 60 17.7 0.0 0.00 0.00 0.00 79 1011.0
20260504002718 27 60 17.7 0.0 0.00 0.00 0.00 79 1011.0
20260504002415 27 60 17.7 0.0 0.00 0.00 0.00 79 1011.0
20260504002108 28 60 17.7 0.0 0.00 0.00 0.00 79 1011.0
20260504001802 28 60 17.7 0.0 0.00 0.00 0.00 79 1011.0
20260504001458 28 60 17.7 0.0 0.00 0.00 0.00 79 1011.0
20260504001156 28 60 17.7 0.0 0.00 0.00 0.00 79 1011.0
20260504000839 28 60 17.7 0.0 0.00 0.00 0.00 79 1011.0
20260504000527 24 60 19.3 0.0 0.00 0.00 0.00 70 1011.0
20260503235853 24 60 19.3 0.0 0.00 0.00 0.00 70 1011.0
20260503235538 24 60 19.3 0.0 0.00 0.00 0.00 70 1011.0
20260503235231 25 60 19.3 0.0 0.00 0.00 0.00 70 1011.0
20260503234928 25 60 19.3 0.0 0.00 0.00 0.00 70 1011.0
20260503234625 25 60 19.3 0.0 0.00 0.00 0.00 70 1011.0
20260503234317 25 60 19.3 0.0 0.00 0.00 0.00 70 1011.0
20260503234013 25 60 19.3 0.0 0.00 0.00 0.00 70 1011.0
20260503233711 25 60 19.3 0.0 0.00 0.00 0.00 70 1011.0
20260503233105 26 60 19.3 0.0 0.00 0.00 0.00 70 1011.0
20260503232744 26 60 19.3 0.0 0.00 0.00 0.00 70 1011.0
20260503232443 26 60 19.3 0.0 0.00 0.00 0.00 70 1011.0
20260503232141 26 60 19.3 0.0 0.00 0.00 0.00 70 1011.0
20260503231839 27 60 19.3 0.0 0.00 0.00 0.00 70 1010.0
20260503231531 27 60 19.3 0.0 0.00 0.00 0.00 70 1010.0
20260503231230 27 60 19.3 0.0 0.00 0.00 0.00 70 1010.0
20260503230926 28 70 17.7 0.0 0.00 0.00 0.00 70 1010.0
20260503230621 27 60 19.3 0.0 0.00 0.00 0.00 70 1010.0
20260503230318 27 70 17.7 0.0 0.00 0.00 0.00 70 1010.0
20260503230016 28 70 17.7 0.0 0.00 0.00 0.00 70 1010.0
20260503225713 28 70 17.7 0.0 0.00 0.00 0.00 70 1010.0
20260503225057 29 70 17.7 0.0 0.00 0.00 0.00 70 1010.0
20260503224754 29 70 17.7 0.0 0.00 0.00 0.00 70 1010.0
20260503224450 29 70 17.7 0.0 0.00 0.00 0.00 70 1010.0
20260503224149 29 70 17.7 0.0 0.00 0.00 0.00 70 1010.0
20260503223847 30 70 17.7 0.0 0.00 0.00 0.00 70 1010.0
20260503223544 30 70 17.7 0.0 0.00 0.00 0.00 70 1010.0
20260503222558 30 70 17.7 0.0 0.00 0.00 0.00 70 1010.0
20260503222255 30 70 17.7 0.0 0.00 0.00 0.00 70 1010.0
20260503221953 30 70 17.7 0.0 0.00 0.00 0.00 70 1010.0
20260503221325 24 70 17.7 0.0 0.00 0.00 0.00 70 1010.0
20260503220724 25 60 17.7 0.0 0.00 0.00 0.00 70 1010.0
20260503220112 25 60 19.3 0.0 0.00 0.00 0.00 70 1010.0
20260503215450 26 60 19.3 0.0 0.00 0.00 0.00 70 1010.0
20260503215139 26 60 19.3 0.0 0.00 0.00 0.00 70 1010.0
20260503214831 26 60 19.3 0.0 0.00 0.00 0.00 70 1010.0
20260503214529 26 60 19.3 0.0 0.00 0.00 0.00 70 1010.0
20260503214228 26 60 19.3 0.0 0.00 0.00 0.00 70 1010.0
20260503213927 26 60 19.3 0.0 0.00 0.00 0.00 70 1010.0
20260503213625 27 60 19.3 0.0 0.00 0.00 0.00 70 1010.0
20260503213315 27 60 19.3 0.0 0.00 0.00 0.00 70 1010.0
20260503213013 28 60 19.3 0.0 0.00 0.00 0.00 70 1010.0
20260503212711 28 60 19.3 0.0 0.00 0.00 0.00 70 1010.0
20260503212409 28 60 19.3 0.0 0.00 0.00 0.00 70 1010.0
20260503212049 28 60 19.3 0.0 0.00 0.00 0.00 70 1010.0
20260503211748 29 60 19.3 0.0 0.00 0.00 0.00 70 1010.0
20260503211446 30 60 19.3 0.0 0.00 0.00 0.00 70 1010.0
20260503211143 30 60 19.3 0.0 0.00 0.00 0.00 70 1010.0
20260503210841 30 60 19.3 0.0 0.00 0.00 0.00 70 1010.0
20260503210539 30 60 19.3 0.0 0.00 0.00 0.00 70 1010.0
20260503210235 30 70 16.1 0.0 0.00 0.00 0.00 70 1010.0
20260503205927 30 70 16.1 0.0 0.00 0.00 0.00 70 1010.0
20260503205626 30 70 16.1 0.0 0.00 0.00 0.00 70 1010.0
20260503205321 30 70 16.1 0.0 0.00 0.00 0.00 70 1010.0
20260503205020 24 70 16.1 0.0 0.00 0.00 0.00 70 1010.0
20260503204718 24 70 16.1 0.0 0.00 0.00 0.00 70 1010.0
20260503204415 24 70 16.1 0.0 0.00 0.00 0.00 70 1010.0
20260503204107 25 70 16.1 0.0 0.00 0.00 0.00 70 1010.0
20260503203806 25 70 16.1 0.0 0.00 0.00 0.00 70 1010.0
20260503203503 25 70 16.1 0.0 0.00 0.00 0.00 70 1011.0
20260503203202 25 70 16.1 0.0 0.00 0.00 0.00 70 1011.0
20260503202853 25 70 16.1 0.0 0.00 0.00 0.00 70 1011.0
20260503202552 26 70 16.1 0.0 0.00 0.00 0.00 70 1011.0
20260503202248 26 70 16.1 0.0 0.00 0.00 0.00 70 1011.0
20260503201946 26 70 16.1 0.0 0.00 0.00 0.00 70 1011.0
20260503201644 26 70 16.1 0.0 0.00 0.00 0.00 70 1011.0
20260503201336 26 70 16.1 0.0 0.00 0.00 0.00 70 1011.0
20260503201035 26 80 14.5 0.0 0.00 0.00 0.00 70 1011.0
20260503200733 26 80 14.5 0.0 0.00 0.00 0.00 70 1011.0
20260503200429 26 80 14.5 0.0 0.00 0.00 0.00 70 1011.0
20260503200122 27 80 14.5 0.0 0.00 0.00 0.00 70 1011.0
20260503195820 27 80 14.5 0.0 0.00 0.00 0.00 70 1011.0
20260503195519 27 80 14.5 0.0 0.00 0.00 0.00 70 1011.0
20260503195205 27 80 14.5 0.0 0.00 0.00 0.00 70 1011.0
20260503194901 27 80 14.5 0.0 0.00 0.00 0.00 70 1011.0
20260503194555 28 80 14.5 0.0 0.00 0.00 0.00 70 1011.0
20260503194248 28 80 14.5 0.0 0.00 0.00 0.00 70 1011.0
20260503193947 27 80 14.5 0.0 0.00 0.00 0.00 70 1011.0
20260503193645 28 80 14.5 0.0 0.00 0.00 0.00 70 1011.0
20260503193344 28 80 14.5 0.0 0.00 0.00 0.00 70 1011.0
20260503193041 29 80 14.5 0.0 0.00 0.00 0.00 70 1011.0
20260503192737 29 80 14.5 0.0 0.00 0.00 0.00 70 1011.0
20260503192436 29 80 14.5 0.0 0.00 0.00 0.00 70 1011.0
20260503192130 30 80 14.5 0.0 0.00 0.00 0.00 70 1011.0
20260503191828 30 80 14.5 0.0 0.00 0.00 0.00 70 1011.0
20260503191526 30 80 14.5 0.0 0.00 0.00 0.00 70 1011.0
20260503191224 30 80 14.5 0.0 0.00 0.00 0.00 70 1011.0
20260503190921 30 80 14.5 0.0 0.00 0.00 0.00 70 1011.0
20260503190619 30 80 14.5 0.0 0.00 0.00 0.00 70 1011.0
20260503190317 31 70 17.7 0.0 0.00 0.00 0.00 66 1011.0
20260503190015 31 70 17.7 0.0 0.00 0.00 0.00 66 1011.0
20260503185711 31 70 17.7 0.0 0.00 0.00 0.00 66 1011.0
20260503184733 31 70 17.7 0.0 0.00 0.00 0.00 66 1011.0
20260503184415 31 70 17.7 0.0 0.00 0.00 0.00 66 1011.0
20260503184113 31 70 17.7 0.0 0.00 0.00 0.00 66 1011.0
20260503183811 31 70 17.7 0.0 0.00 0.00 0.00 66 1011.0
20260503183155 31 70 17.7 0.0 0.00 0.00 0.00 66 1011.0
20260503182851 31 70 17.7 0.0 0.00 0.00 0.00 66 1012.0
20260503182549 31 70 17.7 0.0 0.00 0.00 0.00 66 1012.0
20260503182240 31 70 17.7 0.0 0.00 0.00 0.00 66 1012.0
20260503181912 31 70 17.7 0.0 0.00 0.00 0.00 66 1012.0
20260503181254 31 70 17.7 0.0 0.00 0.00 0.00 66 1012.0
20260503180944 31 70 17.7 0.0 0.00 0.00 0.00 66 1012.0
20260503180638 31 70 19.3 0.0 0.00 0.00 0.00 66 1012.0
20260503180328 31 70 19.3 0.0 0.00 0.00 0.00 66 1012.0
20260503180024 31 70 19.3 0.0 0.00 0.00 0.00 66 1012.0
20260503175707 31 70 19.3 0.0 0.00 0.00 0.00 66 1012.0
20260503175355 31 70 19.3 0.0 0.00 0.00 0.00 66 1012.0
20260503175046 31 70 19.3 0.0 0.00 0.00 0.00 66 1012.0
20260503174739 31 70 19.3 0.0 0.00 0.00 0.00 66 1012.0
20260503174116 31 70 19.3 0.0 0.00 0.00 0.00 66 1012.0
20260503173812 31 70 19.3 0.0 0.00 0.00 0.00 66 1012.0
20260503173504 31 70 19.3 0.0 0.00 0.00 0.00 66 1012.0
20260503173202 31 70 19.3 0.0 0.00 0.00 0.00 66 1013.0
20260503172855 31 70 19.3 0.0 0.00 0.00 0.00 66 1013.0
20260503172542 31 70 19.3 0.0 0.00 0.00 0.00 66 1013.0
20260503172230 31 70 19.3 0.0 0.00 0.00 0.00 66 1013.0
20260503171924 31 70 19.3 0.0 0.00 0.00 0.00 66 1013.0
20260503171617 31 70 19.3 0.0 0.00 0.00 0.00 66 1013.0
20260503171310 31 70 19.3 0.0 0.00 0.00 0.00 66 1013.0
20260503170956 31 70 19.3 0.0 0.00 0.00 0.00 66 1013.0
20260503170637 31 70 17.7 0.0 0.00 0.00 0.00 66 1013.0
20260503170336 31 70 17.7 0.0 0.00 0.00 0.00 66 1013.0
20260503150711 29 60 16.1 0.0 0.00 0.00 0.00 74 1013.0
20260503150410 29 60 16.1 0.0 0.00 0.00 0.00 74 1013.0
20260503150106 30 60 16.1 0.0 0.00 0.00 0.00 74 1013.0
20260503140144 27 50 17.7 0.0 0.00 0.00 0.00 79 1013.0